Weather History for Fort Myers, FL

Change the Weather History Date:

Sunday, January 6, 2013

  Actual Average Record
Temperature  
Mean Temperature 74 °F 64 °F  
Max Temperature 82 °F 74 °F 86 °F (1982)
Min Temperature 65 °F 54 °F 34 °F (2010)
Degree Days  
Heating Degree Days 0 4  
Month to date heating degree days 0 24  
Since 1 July heating degree days 58 117  
Cooling Degree Days 9 3  
Month to date cooling degree days 33 18  
Year to date cooling degree days 33 18  
Growing Degree Days 22 (Base 50)    
Moisture  
Dew Point 67 °F    
Average Humidity 90    
Maximum Humidity 100    
Minimum Humidity 58    
Precipitation  
Precipitation 0.00 in 0.06 in 1.06 in (1970)
Month to date precipitation 0.15 0.37  
Year to date precipitation 0.15 0.37  
Sea Level Pressure  
Sea Level Pressure 30.13 in    
Wind  
Wind Speed 5 mph (East)    
Max Wind Speed 12 mph    
Max Gust Speed 16 mph    
Visibility 6 miles    
Events Fog    
T = Trace of Precipitation, MM = Missing Value Source: NWS Daily Summary

Daily Weather History Graph

Daily Weather History Graph

Search for Another Location

Airport:

Trip Planner

Search our weather history database for the weather conditions in past years. The results will help you decide how hot, cold, wet, or windy it might be!

Date:

Astronomy

Jan. 06, 2013 Rise Set
Actual Time 7:16 AM EST 5:50 PM EST
Civil Twilight 6:51 AM EST 6:15 PM EST
Nautical Twilight 6:23 AM EST 6:44 PM EST
Astronomical Twilight 5:54 AM EST 7:12 PM EST
Moon 1:42 AM EST (1/6) 1:06 PM EST (1/6)
Length of Visible Light 11h 23m
Length of Day
10h 33m
Waning Crescent, 33% of the Moon is Illuminated
Jan 6
Waning Crescent
Jan 11
New
Jan 18
First Quarter
Jan 26
Full
Feb 3
Last Quarter

Hourly Weather History & Observations

Time (EST) Temp. Heat Index Dew Point Humidity Pressure Visibility Wind Dir Wind Speed Gust Speed Precip Events Conditions
12:53 AM 66.0 °F - 64.9 °F 96% 30.18 in 6.0 mi Calm Calm - N/A   Clear
1:16 AM 66.2 °F - 64.4 °F 94% 30.16 in 5.0 mi East 6.9 mph - N/A   Scattered Clouds
1:21 AM 66.2 °F - 66.2 °F 100% 30.16 in 2.5 mi East 6.9 mph - N/A   Mostly Cloudy
1:30 AM 66.2 °F - 66.2 °F 100% 30.16 in 1.2 mi East 6.9 mph - N/A   Mostly Cloudy
1:53 AM 66.0 °F - 66.0 °F 100% 30.16 in 1.2 mi East 5.8 mph - N/A   Overcast
2:49 AM 66.2 °F - 66.2 °F 100% 30.15 in 2.5 mi East 4.6 mph - N/A   Overcast
2:53 AM 66.0 °F - 66.0 °F 100% 30.15 in 3.0 mi East 3.5 mph - N/A   Overcast
3:53 AM 66.0 °F - 66.0 °F 100% 30.15 in 3.0 mi ENE 4.6 mph - N/A   Overcast
4:07 AM 66.2 °F - 66.2 °F 100% 30.14 in 2.5 mi ENE 5.8 mph - N/A   Overcast
4:47 AM 66.2 °F - 66.2 °F 100% 30.13 in 1.8 mi Calm Calm - N/A   Overcast
4:48 AM 66.0 °F - 66.0 °F 100% 30.13 in 1.8 mi Calm Calm - N/A   Overcast
5:53 AM 64.9 °F - 64.9 °F 100% 30.13 in 0.5 mi East 5.8 mph - N/A Fog Fog
6:53 AM 64.9 °F - 64.9 °F 100% 30.14 in 0.5 mi NNE 6.9 mph - N/A Fog Fog
7:53 AM 64.9 °F - 64.9 °F 100% 30.15 in 0.2 mi ENE 4.6 mph - N/A Fog Fog
8:39 AM 66.2 °F - 64.4 °F 94% 30.16 in 0.8 mi East 4.6 mph - N/A   Overcast
8:49 AM 66.2 °F - 64.4 °F 94% 30.16 in 1.2 mi East 4.6 mph - N/A   Overcast
8:53 AM 66.0 °F - 64.9 °F 96% 30.17 in 1.5 mi East 6.9 mph - N/A   Overcast
9:18 AM 66.2 °F - 66.2 °F 100% 30.16 in 2.5 mi East 4.6 mph - N/A   Overcast
9:25 AM 66.2 °F - 66.2 °F 100% 30.16 in 3.0 mi East 5.8 mph - N/A   Overcast
9:53 AM 69.1 °F - 66.9 °F 93% 30.17 in 10.0 mi ESE 6.9 mph - N/A   Mostly Cloudy
10:22 AM 73.4 °F - 66.2 °F 78% 30.16 in 10.0 mi Variable 5.8 mph - N/A   Scattered Clouds
11:53 AM 80.1 °F 82.9 °F 69.1 °F 69% 30.13 in 10.0 mi SE 10.4 mph - N/A   Partly Cloudy
12:53 PM 79.0 °F - 68.0 °F 69% 30.10 in 10.0 mi SSE 6.9 mph - N/A   Mostly Cloudy
1:53 PM 80.1 °F 82.1 °F 66.0 °F 62% 30.07 in 10.0 mi SSE 6.9 mph - N/A   Partly Cloudy
2:53 PM 81.0 °F 83.0 °F 66.0 °F 60% 30.06 in 10.0 mi SSW 11.5 mph - N/A   Clear
3:53 PM 81.0 °F 82.7 °F 64.9 °F 58% 30.06 in 10.0 mi SSW 8.1 mph - N/A   Partly Cloudy
4:53 PM 79.0 °F - 66.0 °F 64% 30.07 in 10.0 mi SW 8.1 mph - N/A   Mostly Cloudy
5:53 PM 75.9 °F - 68.0 °F 76% 30.09 in 10.0 mi WSW 5.8 mph - N/A   Mostly Cloudy
6:53 PM 73.9 °F - 68.0 °F 82% 30.09 in 10.0 mi WSW 3.5 mph - N/A   Overcast
7:53 PM 73.0 °F - 68.0 °F 84% 30.11 in 10.0 mi Calm Calm - N/A   Mostly Cloudy
8:53 PM 72.0 °F - 69.1 °F 91% 30.12 in 10.0 mi Calm Calm - N/A   Clear
9:53 PM 71.1 °F - 68.0 °F 90% 30.13 in 10.0 mi Calm Calm - N/A   Clear
10:08 PM 71.6 °F - 69.8 °F 94% 30.13 in 10.0 mi NW 3.5 mph - N/A   Mostly Cloudy
10:16 PM 71.6 °F - 69.8 °F 94% 30.13 in 10.0 mi NW 6.9 mph - N/A   Mostly Cloudy
10:53 PM 71.1 °F - 69.1 °F 93% 30.13 in 10.0 mi NW 3.5 mph - N/A   Overcast
11:03 PM 71.6 °F - 69.8 °F 94% 30.12 in 10.0 mi Calm Calm - N/A   Overcast
11:13 PM 71.6 °F - 69.8 °F 94% 30.12 in 10.0 mi North 4.6 mph - N/A   Overcast
11:36 PM 71.6 °F - 69.8 °F 94% 30.12 in 10.0 mi North 3.5 mph - N/A   Scattered Clouds
11:48 PM 71.6 °F - 69.8 °F 94% 30.12 in 10.0 mi NNE 4.6 mph - N/A   Mostly Cloudy
11:53 PM 71.1 °F - 68.0 °F 90% 30.12 in 10.0 mi NNE 4.6 mph - N/A   Mostly Cloudy